Location: *
(40.4000°N, 15.1200°E)
Time: 17:58:55
(UTC+00:00)

Cosmos 2074 Rocket - Pass Details

Date: 09 April 2020
Orbit: 967 x 986 km, 82.9° (Epoch: 05 June)

Event Time Altitude Azimuth Distance (km) Brightness Sun altitude
Rises 17:58:24 0° 356° (N) 3,698 7.3 -5.6°
Reaches altitude 10° 18:00:58 10° 360° (N) 2,748 6.6 -6.1°
Maximum altitude 18:07:12 61° 80° (E) 1,113 4.1 -7.2°
Drops below altitude 10° 18:13:24 10° 160° (SSE) 2,735 6.0 -8.3°
Sets 18:15:57 0° 164° (SSE) 3,679 6.7 -8.8°
